Location: Arborea
(39.7744°N, 8.5819°E)
Time: 03:49:33
(UTC+00:00)

Cosmos 1300 - Pass Details

Date: 24 October 2021
Orbit: 509 x 512 km, 82.5° (Epoch: 27 November)

Event Time Altitude Azimuth Distance (km) Brightness Sun altitude
Rises 17:51:08 0° 201° (SSW) 2,610 6.6 -15.5°
Reaches altitude 10° 17:53:19 10° 208° (SSW) 1,729 5.8 -16.0°
Maximum altitude 17:56:56 43° 281° (W) 734 4.0 -16.7°
Drops below altitude 10° 18:00:35 10° 354° (N) 1,741 5.4 -17.4°
Sets 18:02:48 0° 1° (N) 2,632 6.3 -17.8°
